Location: Trout Lake
(45.9980°N, 121.5270°W)
Time: 14:52:29
(UTC-07:00)

Daily predictions for brighter satellites

Satellite Brightness Start Highest point End
(mag) Time Altitude Azimuth Time Altitude Azimuth Time Altitude Azimuth
Cosmos 1437 Rocket 3.0 19:45:43 10° S 19:49:36 51° E 19:53:35 10° NNE
Cosmos 2150 Rocket 4.1 19:44:46 10° S 19:49:45 53° ESE 19:54:46 10° NNE
SJ-6B 2.7 19:50:31 10° SSE 19:54:15 90° WSW 19:58:00 10° NNW
ALOS 2.3 19:50:53 10° SSE 19:55:32 74° ENE 20:00:13 10° N
Helios 1B rocket 3.9 19:54:10 10° NE 19:56:53 17° E 19:59:34 10° SE
Cosmos 990 Rocket 4.2 19:51:56 10° S 19:56:56 47° ESE 20:01:57 10° NNE
BREEZE-M DEB (TANK) 3.0 19:55:17 10° WNW 19:57:46 36° N 20:00:01 10° ENE
Cosmos 1898 Rocket 3.5 19:54:10 10° SSW 19:59:28 83° ESE 20:04:47 10° NNE
Cosmos 1605 Rocket 4.5 19:54:57 10° SSE 20:00:42 40° E 20:06:32 10° NNE
In-Cosmos 22 4.4 19:56:37 10° N 20:01:46 46° ENE 20:06:49 10° SSE
Cosmos 1378 3.1 19:58:21 10° N 20:02:08 85° E 20:05:53 10° S
Envisat 4.2 19:58:36 10° ESE 20:02:36 24° ENE 20:06:36 10° N
Helios 1A 3.8 20:02:02 10° SE 20:05:40 30° ENE 20:09:22 10° N
Cosmos 1844 Rocket 2.8 20:00:39 10° SSW 20:06:18 89° WNW 20:11:58 10° NNE
Lacrosse 4 Rocket 1.3 20:03:53 10° SSW 20:07:56 89° WNW 20:12:01 10° NNE
Cosmos 2123 Rocket 4.0 20:04:40 10° N 20:11:00 67° E 20:17:14 10° SSE
Cosmos 2344 3.7 20:04:58 10° SSW 20:12:29 63° ESE 20:21:01 10° NE
HJ-1C 3.6 20:09:06 10° S 20:12:30 78° WSW 20:15:56 10° NNW
Cosmos 1833 Rocket 3.5 20:09:10 10° N 20:14:12 32° NE 20:18:39 13° ESE
Geosat 4.4 20:09:44 10° NE 20:14:26 38° ESE 20:19:06 10° S
Cosmos 1758 4.2 20:12:37 10° SSE 20:15:59 27° E 20:19:22 10° NNE
Cosmos 2278 Rocket 2.4 20:13:03 10° S 20:18:31 51° ESE 20:24:01 10° NE
SL-27 R/B 2.6 20:15:11 10° NNW 20:18:46 80° WSW 20:22:22 10° SSE
Lacrosse 5 2.1 20:15:01 10° SSW 20:19:53 48° SE 20:24:45 10° ENE
H-2A R/B 2.8 20:18:31 10° SSE 20:22:24 88° WSW 20:26:22 10° NNW
FENGYUN 3A 4.1 20:18:10 10° S 20:23:33 68° WSW 20:28:57 10° NNW
USA 267 4.1 20:17:36 10° E 20:23:34 39° NNE 20:29:31 10° NW
Meteor 1-29 4.2 20:21:48 10° NE 20:24:36 22° E 20:27:24 10° SSE
Cosmos 1953 3.1 20:21:48 10° SSE 20:25:25 31° E 20:29:02 10° NNE
Meteor 1-4 Rocket 3.4 20:22:34 10° SSE 20:25:31 27° E 20:28:30 10° NE
ERS-1 Rocket 4.3 20:23:28 15° E 20:26:13 22° ENE 20:30:02 10° NNE
COSMOS 2487 3.7 20:23:29 10° N 20:26:33 25° ENE 20:28:08 19° E
Cosmos 1939 Rocket 4.0 20:24:03 15° ESE 20:26:34 26° ENE 20:30:03 10° N
Resurs 1-3 3.6 20:24:41 10° SSE 20:29:04 90° S 20:33:29 10° NNW
Cosmos 1544 3.4 20:26:17 10° SSE 20:29:44 42° E 20:33:14 10° NNE
Timation 2 Rocket 4.5 20:24:23 10° NNW 20:30:28 42° NE 20:34:55 17° ESE
Cosmos 1937 Rocket 3.8 20:25:26 10° SSW 20:30:40 75° WNW 20:36:00 10° NNE
Cosmos 1818 3.6 20:26:20 10° NNW 20:31:46 64° NE 20:36:09 16° SE
Cosmos 2297 4.4 20:27:19 10° SSE 20:32:16 31° ESE 20:37:16 10° NE
SeaSat 1 3.8 20:31:06 10° S 20:35:41 39° WSW 20:40:19 10° NW
Meteor 1-24 Rocket 4.3 20:30:49 10° NNW 20:36:11 61° W 20:41:43 10° S
ATLAS 5 CENTAUR R/B 3.8 20:35:08 10° SSE 20:35:09 10° SSE 20:35:09 10° SSE
Tiangong 1 3.1 20:39:36 10° WSW 20:41:42 18° SSW 20:43:02 14° S
Cosmos 1269 Rocket 4.1 20:38:43 10° NNW 20:43:56 57° ENE 20:47:43 18° SE
Cosmos 1408 Rocket 3.9 20:40:21 10° N 20:44:40 46° ENE 20:47:32 19° SE
Lacrosse 5 rocket 2.3 20:41:13 10° NW 20:44:51 32° NNE 20:46:35 22° ENE
Cosmos 1766 3.9 20:41:45 10° SSW 20:45:33 58° W 20:49:25 10° N
Cosmos 2082 Rocket 2.3 20:40:28 10° NNW 20:46:07 58° ENE 20:49:57 20° SE
Abrixas 2.4 20:45:50 10° WNW 20:48:40 63° SSW 20:49:24 41° SE
Cosmos 1271 Rocket 3.7 20:49:53 28° E 20:49:57 28° E 20:53:25 10° NNE
Cosmos 1447 Rocket 4.4 20:43:54 10° N 20:50:04 74° E 20:56:11 10° SSE
Cosmos 468 4.5 20:47:03 10° NNW 20:52:19 88° WSW 20:57:06 13° SSE
Okean 3 Rocket 3.8 20:48:03 10° NNW 20:52:25 70° W 20:56:48 10° S
RESURS DK-1 3.9 20:49:00 10° NW 20:52:48 36° WSW 20:56:34 10° S
USA 186 1.7 20:53:12 26° SSW 20:54:12 50° W 20:56:23 10° NNW
Cosmos 2098 Rocket 4.4 20:47:12 10° S 20:54:19 71° E 21:01:54 10° NNE
Cosmos 1459 Rocket 4.3 20:52:06 10° SSE 20:57:58 44° E 21:03:46 10° NNE
Cosmos 2173 Rocket 4.2 20:55:34 10° SSE 21:01:22 45° E 21:07:17 10° NNE
BREEZE-M DEB (TANK) 3.5 20:59:46 10° SW 21:02:56 68° SSE 21:12:40 10° ENE
SJ-11-01 4.2 21:03:05 21° SSE 21:06:14 76° ENE 21:10:58 10° N
Cosmos 1867 3.7 21:03:59 10° SSW 21:09:14 50° ESE 21:14:30 10° NE
Cosmos 1674 2.5 21:07:41 10° N 21:11:29 85° E 21:12:51 38° SSE
ARGOS 4.1 21:10:50 27° ENE 21:11:39 28° ENE 21:16:09 10° N
Cosmos 372 Rocket 3.9 21:09:36 10° S 21:14:36 59° ESE 21:19:41 10° NNE
GP-B 3.2 21:13:25 10° S 21:17:50 75° W 21:22:18 10° N
Cosmos 2151 4.3 21:15:04 10° NNE 21:17:51 25° NE 21:17:51 25° NE
CZ-3B DEB 2.7 21:09:17 10° WSW 21:18:53 66° NNW 21:22:23 17° NE
Cosmos 1805 4.4 21:16:49 10° SSW 21:20:34 45° WNW 21:24:20 10° N
Resurs 01 Rocket 3.9 21:17:06 10° SSW 21:20:39 24° W 21:24:14 10° NW
Timation 1 Rocket 4.3 21:15:30 10° SSW 21:21:31 87° ESE 21:27:34 10° NNE
Cosmos 1076 Rocket 4.3 21:18:26 10° NNW 21:22:33 49° W 21:26:08 13° SSW
Cosmos 158 Rocket 4.0 21:19:03 10° NNW 21:24:09 81° WSW 21:26:34 33° SSE
Cosmos 1766 Rocket 4.0 21:23:24 10° NNW 21:27:50 63° W 21:30:29 23° S
CZ-4B DEB 4.2 21:27:52 27° SW 21:28:53 34° W 21:31:46 10° NNW
YAOGAN 6 2.7 21:31:51 66° NNE 21:31:51 66° NNE 21:35:13 10° N
USA 215 3.1 21:25:40 10° NE 21:32:12 68° SE 21:38:41 10° SW
Helios 1B rocket 3.4 21:28:27 10° N 21:32:27 47° WNW 21:36:23 10° SW
Cosmos 2016 Rocket 4.0 21:30:07 34° SSE 21:32:41 57° E 21:38:42 10° NNE
Cosmos 1340 Rocket 2.7 21:29:03 10° NNW 21:33:07 87° W 21:33:27 74° S
Cosmos 1470 2.7 21:33:52 59° SSW 21:34:34 84° W 21:38:34 10° N
Cosmos 494 Rocket 4.2 21:30:39 10° NNW 21:35:39 49° ENE 21:35:57 49° ENE
H-2A R/B 3.2 21:35:56 28° ENE 21:35:56 28° ENE 21:40:08 10° N
Cosmos 1725 Rocket 4.2 21:39:17 45° E 21:39:28 45° E 21:45:18 10° NNE
Meteor 2-17 Rocket 4.4 21:38:47 39° SSE 21:41:02 64° E 21:47:07 10° NNE
Envisat 3.7 21:37:39 18° S 21:41:18 50° W 21:46:15 10° NNW
Cosmos 2100 Rocket 4.1 21:39:41 10° SSW 21:46:01 79° W 21:52:25 10° N
Lacrosse 4 Rocket 4.5 21:45:12 10° WNW 21:47:18 14° NW 21:49:23 10° N
Cosmos-2242 3.6 21:46:50 26° SSW 21:49:02 56° WNW 21:53:14 10° N
Cosmos 1125 Rocket 4.2 21:44:54 10° SW 21:49:58 54° WNW 21:55:07 10° NNE
Cosmos 1184 Rocket 4.5 21:46:40 10° N 21:48:34 31° NNW 21:48:34 31° NNW
Tsikada Rocket 4.0 21:44:02 10° N 21:50:09 58° ENE 21:50:48 55° ESE
SL-08 R/B 4.4 21:51:05 50° SSE 21:52:41 68° E 21:59:03 10° NNE
Cosmos 1733 3.9 21:53:21 51° W 21:53:34 52° WNW 21:57:23 10° N
Cosmos 1833 Rocket 3.5 21:52:57 10° NW 21:58:18 45° WSW 22:00:23 32° SSW
Cosmos 1743 Rocket 3.9 21:55:18 10° NNW 21:59:40 61° W 21:59:49 60° WSW
NOAA 11 4.0 22:00:24 74° SSE 22:00:55 87° ENE 22:06:27 10° NNW
Cosmos 1500 Rocket 3.9 21:57:49 10° NNW 22:01:27 60° NNW 22:01:27 60° NNW
H-2A R/B 4.0 22:04:18 19° NNE 22:04:18 19° NNE 22:05:49 10° N
Cosmos 2278 Rocket 4.1 21:57:56 10° WSW 22:02:52 30° NW 22:07:51 10° N
Lacrosse 5 2.9 21:58:06 10° W 22:02:57 44° NNW 22:05:49 22° NNE
ERS-1 Rocket 3.5 22:03:27 44° SW 22:04:36 54° W 22:09:34 10° NNW
Cosmos 1802 Rocket 4.1 22:00:26 20° SSW 22:04:52 72° W 22:11:04 10° N
SPOT 5 3.0 22:05:38 85° E 22:05:40 85° ENE 22:11:03 10° NNW
USA 267 3.2 22:04:45 59° E 22:06:04 76° NNE 22:12:36 10° NW
MetOp-B 4.1 22:08:27 75° SSW 22:08:47 79° WSW 22:14:10 10° NNW
Meteor 1-11 4.1 22:10:30 10° NNW 22:16:05 78° W 22:16:13 78° WSW
SPOT 1/Viking Rocket 3.8 22:19:57 61° N 22:19:57 61° N 22:24:17 10° NNW
Cosmos 2251 Rocket 3.7 22:15:25 10° NNW 22:20:23 69° W 22:20:23 69° W
ATLAS 5 CENTAUR R/B4.422:27:52NE22:27:52NE22:16:59SW
Lacrosse 5 rocket 3.3 22:20:28 10° WNW 22:22:18 25° WNW 22:22:18 25° WNW
Cosmos 1816 Rocket 4.4 22:22:30 10° N 22:28:34 86° NNW 22:28:34 86° NNW
Cosmos 2082 Rocket 4.0 22:25:21 10° NW 22:29:46 24° WSW 22:31:50 19° SW
Terra 3.5 22:35:05 27° N 22:35:05 27° N 22:37:24 10° N
Cosmos 2233 Rocket 4.4 22:49:50 56° N 22:49:50 56° N 22:54:34 10° N
ARGOS 4.1 22:52:21 43° WNW 22:52:21 43° WNW 22:56:49 10° NNW
H-2A R/B 3.5 23:16:33 35° NW 23:16:33 35° NW 23:19:59 10° NNW
USA 215 3.9 23:08:49 10° NE 23:15:06 51° NNW 23:21:21 10° W
Cosmos 2369 Rocket 4.3 23:30:06 19° NNE 23:30:06 19° NNE 23:31:40 10° NNE
CZ-3B DEB 4.3 23:27:27 10° WNW 23:29:43 17° NW 23:29:43 17° NW
Cosmos 2227 Rocket 4.4 23:33:59 10° N 23:36:27 17° NNE 23:36:27 17° NNE
Lacrosse 5 4.3 23:42:54 10° WNW 23:45:05 19° NW 23:45:05 19° NW
